Regional Weather Roundup
Issued by NWS Glasgow, MT

Home | Current Version | Previous Version | Text Only | Print | Product List | Glossary On
Versions: 1 2 3 4 5 6 7 8 9 10 11 12 13 14 15 16 17 18 19 20 21 22 23 24 25 26 27 28 29 30 31 32 33 34 35 36 37 38 39 40 41 42 43 44 45 46 47 48 49 50
872
ASUS45 KGGW 091315
RWRGGW
HOURLY REGIONAL WEATHER ROUNDUP FOR NORTHEAST MONTANA
NATIONAL WEATHER SERVICE GLASGOW MONTANA
600 AM MST FRI DEC 09 2016

NOTE: "FAIR" INDICATES FEW OR NO CLOUDS BELOW 12,000 FEET WITH NO
SIGNIFICANT WEATHER AND/OR OBSTRUCTIONS TO VISISBILITY.

NORTHEAST MONTANA


CITY           SKY/WX    TMP DP  RH WIND       PRES   REMARKS
GLASGOW        CLOUDY    -4  -9  79 E13       30.49S WCI -23
PLENTYWOOD       N/A     -7 -11  83 CALM        N/A
WOLF POINT     CLOUDY   -13 -20  71 CALM      30.57R
JORDAN           N/A     -9 -14  78 E5        30.42F
WINNETT          N/A      0  -4  83 NE2         N/A
SIDNEY         CLOUDY   -18 -23  77 CALM      30.56
GLENDIVE       CLEAR    -16 -20  82 N7        30.49R
SCOBEY           N/A     -4 -13  65 CALM      30.43S

FORT PECK REPORTS


CITY           SKY/WX    TMP DP  RH WIND       PRES   REMARKS
FORT PECK        N/A     -5  -8  87 E9          N/A
THE PINES        N/A      1  -2  87 CALM        N/A

SOUTHEAST MONTANA


CITY           SKY/WX    TMP DP  RH WIND       PRES   REMARKS
BILLINGS       LGT SNOW   1  -3  83 NE7       30.26S FOG
MILES CITY     CLOUDY    -5 -10  79 NE9       30.41S
BAKER          CLOUDY   -13 -18  78 SE3       30.40R
LIVINGSTON     LGT SNOW   4  -1  80 E7        30.14S

CENTRAL MONTANA


CITY           SKY/WX    TMP DP  RH WIND       PRES   REMARKS
HAVRE          CLOUDY     0  -5  79 E10       30.42S WCI -16
LEWISTOWN      FLURRIES   0  -5  79 CALM      30.21S
GREAT FALLS    CLOUDY    -3  -8  79 N5        30.28S
CUT BANK       CLOUDY    -5  -8  87 SE3       30.27F
HELENA         LGT SNOW   0  -5  79 W5        30.22F
BUTTE          CLOUDY     2  -3  80 S8        30.01S
BOZEMAN        FLURRIES   4   0  83 W3        30.15S

WESTERN MONTANA


CITY           SKY/WX    TMP DP  RH WIND       PRES   REMARKS
MISSOULA       LGT SNOW  12   6  77 E8        30.18R
KALISPELL      NOT AVBL

NORTH DAKOTA


CITY           SKY/WX    TMP DP  RH WIND       PRES   REMARKS
WILLISTON      CLOUDY   -16 -20  82 CALM      30.56R
DICKINSON      ICE FOG  -21 -25  81 SW3       30.44R VSB 1/2
MINOT          CLOUDY   -11 -15  82 W7        30.52F
BISMARCK       CLOUDY   -12 -16  82 CALM      30.56S

SOUTHERN SASKATCHEWAN


CITY           SKY/WX    TMP DP  RH WIND       PRES   REMARKS
REGINA         CLEAR    -18 -24  76 NW7       30.56F
MOOSE JAW      PTCLDY   -11 -18  70 NW5       30.59R
ESTEVAN        PTCLDY   -24 -29  76 NW7       30.53S
SWIFT CURRENT  FLURRIES  -8  -9  92 N6        30.45S





USA.gov is the U.S. government's official web portal to all federal, state and local government web resources and services.